Regional Weather Roundup
Issued by NWS Kansas City/Pleasant Hill, MO

Home | Current Version | Previous Version | Text Only | Print | Product List | Glossary On
Versions: 1 2 3 4 5 6 7 8 9 10 11 12 13 14 15 16 17 18 19 20 21 22 23 24 25 26 27 28 29 30 31 32 33 34 35 36 37 38 39 40 41 42 43 44 45 46 47 48 49 50
000
ASUS43 KEAX 232310
RWREAX

WEATHER ROUNDUP FOR EASTERN KANSAS AND NORTHWEST MISSOURI
NATIONAL WEATHER SERVICE KANSAS CITY/PLEASANT HILL MO
600 PM CDT WED AUG 23 2017

KSZ040-057-103>105-MOZ028-029-037-043-240000-
...KANSAS CITY METROPOLITAN AREA...

CITY           SKY/WX    TMP DP  RH WIND       PRES   REMARKS
K.C. INTL      SUNNY     77  56  48 VRB7      30.07F
K.C. DOWNTOWN  SUNNY     80  56  43 NE3       30.05F
LEES SUMMIT    SUNNY     77  58  51 CALM      30.07F
OLATHE - IXD   SUNNY     79  53  40 E7        30.07F
OLATHE - OJC   SUNNY     77  56  48 E6        30.07S
LAWRENCE       SUNNY     79  58  48 NE5       30.06F

$$

MOZ001>008-011>017-020>025-030>033-038>040-044>046-053-054-240000-
...NORTHERN AND CENTRAL MISSOURI...

CITY           SKY/WX    TMP DP  RH WIND       PRES   REMARKS
ST. JOSEPH     SUNNY     79  57  46 E6        30.06F
MOSBY          CLEAR     77  52  41 CALM      30.06F
WARRENSBURG    SUNNY     77  55  47 N3        30.06F
WHITEMAN AFB   SUNNY     77  57  50 NE6       30.06F
CLINTON        SUNNY     75  59  57 NE5       30.07S
SEDALIA        SUNNY     79  58  48 NE3       30.07F
WARSAW         NOT AVBL
CHILLICOTHE      N/A     79  55  43 CALM      30.07F
KIRKSVILLE     SUNNY     79  49  34 MISG      30.07S

$$

MOZ041-047>049-056>058-063>065-088>090-097-240000-
...EASTERN AND SOUTHERN MISSOURI...

CITY           SKY/WX    TMP DP  RH WIND       PRES   REMARKS
ST. LOUIS INTL MOSUNNY   77  52  41 N9        30.04F
SPIRIT OF STL  MOSUNNY   79  54  41 VRB5      30.03S
COLUMBIA       SUNNY     77  54  44 NE6       30.06S
JEFFERSON CITY SUNNY     79  54  41 CALM      30.05S
ROLLA          SUNNY     76  54  46 N7        30.07S
OSAGE BEACH    SUNNY     76  55  48 NE6       30.07S
SPRINGFIELD    SUNNY     78  54  43 NE9       30.04F
BRANSON        MOSUNNY   79  55  44 CALM      30.04F
JOPLIN         SUNNY     80  58  46 NE6       30.05S
WEST PLAINS    SUNNY     78  52  40 NE7       30.05S

$$

IAZ060-094-KSZ022-034>040-054-083-096-NEZ052-066-093-240000-
...KANSAS...SOUTHEAST NEBRASKA AND IOWA...

CITY           SKY/WX    TMP DP  RH WIND       PRES   REMARKS
TOPEKA         SUNNY     79  57  46 SE6       30.06F
MANHATTAN      SUNNY     80  57  45 E10       30.05F
EMPORIA        SUNNY     78  54  43 E9        30.06F
CHANUTE        SUNNY     80  54  40 NE7       30.06S
WICHITA        SUNNY     83  51  33 E10       30.03F
OMAHA          SUNNY     79  55  43 S13       30.05F
LINCOLN        SUNNY     79  57  46 S9        30.06F
FALLS CITY     SUNNY     78  56  46 E6        30.06F
LAMONI         SUNNY     80  53  39 N6        30.07S
DES MOINES     SUNNY     79  50  36 CALM      30.05F

$$




USA.gov is the U.S. government's official web portal to all federal, state and local government web resources and services.